Lapse_Rate
6.3 6.1 6.0 5.8 5.4 5.2 5.0 5.0 5.2 5.3 5.4 5.5 5.5 5.6 5.6 5.6 5.7 5.8 5.7 5.9 6.1 6.1 6.1 6.2 6.3 6.4 6.6 6.6 6.5 6.3 6.0 6.0
6.3 6.1 6.0 6.0 5.6 5.3 5.0 4.9 5.0 5.2 5.2 5.3 5.4 5.5 5.5 5.6 5.6 5.8 5.9 6.0 6.2 6.2 6.3 6.4 6.4 6.5 6.4 6.3 6.2 6.1 5.9 5.6
6.6 6.2 6.0 6.0 5.7 5.4 5.1 4.9 4.9 5.0 5.1 5.2 5.3 5.5 5.6 5.4 5.7 5.8 5.9 6.2 6.3 6.4 6.4 6.5 6.5 6.3 6.2 6.1 6.0 5.8 5.6 5.3
6.9 6.3 6.1 6.1 5.9 5.5 5.4 5.1 5.0 5.1 5.3 5.3 5.4 5.3 5.4 5.5 5.7 5.8 5.8 6.2 6.4 6.5 6.4 6.4 6.4 6.1 6.0 6.0 5.9 5.7 5.4 5.2
6.9 6.5 6.3 6.1 6.0 5.7 5.5 5.5 5.4 5.4 5.4 5.4 5.5 5.4 5.4 5.6 5.6 5.8 5.9 6.1 6.3 6.4 6.5 6.4 6.2 5.9 5.9 5.7 5.6 5.5 5.2 5.0
6.8 6.8 6.4 6.3 6.1 5.9 5.8 5.7 5.5 5.5 5.5 5.7 5.5 5.5 5.5 5.6 5.6 5.8 5.9 5.9 6.2 6.4 6.4 6.3 6.1 5.8 5.7 5.5 5.4 5.3 5.1 5.0
6.7 6.6 6.4 6.3 6.2 6.0 5.9 5.8 5.6 5.5 5.7 5.7 5.6 5.5 5.5 5.5 5.6 5.8 6.0 6.1 6.2 6.3 6.3 6.2 6.0 5.7 5.6 5.4 5.2 5.1 5.0 5.0
6.9 6.5 6.3 6.2 6.0 6.0 5.9 5.8 5.7 5.6 5.7 5.7 5.6 5.6 5.5 5.6 5.7 5.8 6.0 6.1 6.2 6.3 6.1 6.1 5.9 5.6 5.4 5.4 5.1 5.0 5.0 5.0
7.4 6.7 6.3 6.3 6.1 6.0 5.8 5.8 5.8 5.7 5.7 5.8 5.8 5.7 5.6 5.5 5.7 5.7 5.7 6.0 6.3 6.3 6.2 6.0 5.7 5.5 5.3 5.1 5.1 5.0 5.0 5.2
7.5 7.0 6.4 6.3 6.2 6.1 5.9 5.8 5.7 5.7 5.7 5.7 5.8 5.8 5.6 5.5 5.5 5.6 5.6 5.8 6.1 6.3 6.2 6.1 5.8 5.4 5.2 5.1 5.0 5.0 5.0 5.3
6.9 6.6 6.5 6.1 6.1 6.1 6.0 5.7 5.6 5.7 5.7 5.7 5.7 5.9 5.7 5.5 5.3 5.5 5.5 5.7 5.8 6.2 6.1 6.1 5.9 5.3 5.1 5.1 5.0 5.0 4.9 5.2
7.0 6.3 6.7 6.3 6.0 6.1 6.0 5.8 5.7 5.7 5.8 5.8 5.7 5.9 5.8 5.7 5.4 5.4 5.6 5.8 5.8 6.0 6.0 6.0 5.8 5.5 5.1 5.0 5.0 4.9 4.9 5.1
7.1 7.2 7.0 6.8 6.2 6.0 6.0 6.0 5.9 5.9 5.9 5.9 5.8 5.8 5.9 5.7 5.5 5.4 5.5 5.8 5.5 6.1 6.1 5.9 5.7 5.4 5.2 5.0 5.0 4.9 5.0 5.1
7.2 7.1 7.1 6.5 6.2 5.3 5.8 6.1 6.0 5.6 5.7 5.9 5.8 5.7 5.9 5.8 5.5 5.5 5.5 5.9 5.8 6.2 6.2 5.9 5.8 5.5 5.1 5.0 5.0 4.9 5.0 5.0
7.1 7.0 7.1 7.2 6.2 5.7 4.9 5.6 5.8 5.5 5.5 5.8 6.0 5.9 6.0 6.0 5.6 5.5 5.5 5.7 5.8 5.5 5.8 5.6 5.6 5.4 5.1 4.9 4.8 4.9 5.0 5.1
6.9 6.8 6.8 6.9 6.7 6.0 5.6 5.1 6.0 5.9 5.9 6.0 6.0 6.1 6.0 5.9 5.5 5.5 5.6 5.6 5.8 5.5 5.6 5.5 5.7 5.5 5.2 4.8 4.7 4.9 5.0 5.0
6.9 6.8 6.8 6.7 6.9 6.5 6.1 5.8 5.5 5.8 5.9 6.1 5.8 5.9 6.0 5.8 5.5 5.5 5.6 5.7 5.8 6.0 5.6 5.8 5.7 5.7 5.2 4.8 4.7 4.8 4.9 4.9
7.1 6.9 6.9 6.6 6.7 6.5 6.2 5.9 5.6 5.1 5.8 5.9 5.8 5.8 5.9 5.9 5.5 5.5 5.6 5.6 5.9 5.7 5.6 5.7 5.7 5.6 5.3 4.9 4.9 4.8 4.9 5.0
7.1 7.2 7.2 7.1 6.8 6.5 6.0 6.5 5.6 5.2 5.7 6.0 5.8 6.0 5.7 6.0 6.0 5.9 5.8 5.8 5.7 5.6 5.7 5.7 5.5 5.5 5.3 4.9 4.8 4.8 4.8 4.8
6.8 7.0 7.2 7.1 7.0 6.7 6.2 5.9 6.7 6.0 5.3 5.9 6.2 6.2 6.1 6.1 6.3 6.2 6.0 5.7 5.6 5.6 5.8 5.5 5.8 5.5 5.3 5.0 4.8 4.9 4.8 4.8
Wind_Speed
24 25 24 23 22 19 19 19 20 20 23 20 24 28 27 27 27 26 23 24 25 24 24 24 23 21 19 21 26 23 21 18
22 23 24 23 21 19 19 20 20 21 23 23 25 29 27 27 27 24 23 23 25 25 24 24 23 21 16 14 12 20 22 22
20 21 20 22 22 20 20 19 20 22 24 25 26 21 23 18 26 23 24 25 24 24 23 23 23 19 11 7 13 20 18 18
16 18 17 21 22 23 22 21 21 21 22 22 15 18 18 21 26 25 25 24 24 23 23 23 19 17 13 8 19 20 17 19
17 17 18 16 19 22 20 20 19 20 22 17 17 17 21 19 22 22 22 20 18 19 15 12 12 11 13 14 14 17 20 17
16 20 20 16 16 15 14 13 12 17 18 16 17 16 19 18 17 18 16 12 15 12 13 14 14 14 14 14 14 17 18 16
18 17 18 18 16 18 16 15 16 16 19 19 19 18 17 15 17 14 12 14 13 14 16 15 15 15 14 14 15 15 16 18
15 16 17 20 16 15 16 16 17 16 17 19 18 17 18 16 16 13 14 14 15 16 15 15 13 14 13 13 12 12 12 13
17 16 18 15 17 17 17 16 18 17 15 19 19 20 20 19 16 14 15 15 16 17 14 14 13 13 13 12 12 11 11 11
18 14 17 14 16 15 15 17 17 16 16 18 21 20 21 18 16 15 16 17 16 15 14 10 9 9 8 11 11 12 11 10
18 16 16 17 16 15 13 16 15 15 16 18 19 20 22 20 16 16 18 16 15 14 11 11 9 9 8 10 10 11 10 10
17 15 16 16 11 12 13 12 15 17 16 18 21 21 22 20 17 18 18 15 13 14 11 12 9 9 8 7 7 8 9 8
18 18 18 13 10 10 9 10 11 9 14 20 21 22 23 21 17 18 18 11 10 14 11 13 10 9 9 7 6 6 6 7
19 19 18 15 10 8 9 10 11 12 17 17 22 22 23 22 21 18 20 11 13 11 11 10 10 11 9 7 5 5 5 5
19 19 19 18 18 10 7 9 10 11 12 11 21 22 22 23 23 20 20 17 11 11 11 13 11 11 10 3 4 4 8 6
19 18 17 16 19 14 14 11 13 12 10 13 13 21 21 22 23 24 20 17 13 12 16 10 9 12 10 5 3 3 6 5
16 18 18 18 19 17 13 11 8 12 12 16 15 16 21 18 22 23 21 18 21 18 12 10 10 10 10 9 6 5 4 3
16 17 17 18 20 22 17 16 12 11 15 14 13 11 12 20 22 22 23 20 18 20 21 15 11 12 10 9 7 7 6 5
14 18 16 19 21 23 23 21 21 19 17 15 16 13 11 15 22 18 18 22 22 24 18 13 12 12 12 10 9 8 3 6
14 17 19 19 21 23 21 25 14 15 17 13 13 14 14 19 22 25 24 24 25 24 17 14 19 13 15 13 10 8 6 5
Wind_Direction
153 154 146 139 137 137 134 130 128 131 132 126 121 112 114 112 109 106 111 110 108 105 105 104 99 93 85 82 86 85 89 89
157 153 157 157 151 137 131 127 127 128 131 131 118 118 118 115 111 111 113 111 109 108 106 104 99 94 98 101 106 112 84 74
161 156 161 161 155 146 130 124 123 123 129 133 140 133 131 124 109 114 113 111 110 109 108 105 98 91 86 99 98 95 90 87
163 155 164 159 157 159 159 151 153 152 148 155 150 133 119 117 114 116 114 111 110 113 119 131 129 119 107 103 88 88 100 96
163 156 142 162 159 169 166 168 162 159 159 167 129 132 123 124 123 124 124 126 121 127 143 117 104 103 92 97 114 104 81 87
174 162 156 164 155 158 153 147 159 167 165 150 152 150 138 137 139 142 146 132 129 127 111 108 105 98 95 94 84 97 98 91
169 164 164 161 159 166 158 155 167 173 165 150 169 160 145 147 145 158 142 139 135 124 126 119 114 110 104 96 91 90 96 99
162 167 167 165 164 163 166 165 167 175 170 156 172 165 157 152 153 151 146 146 137 134 130 130 119 116 109 102 101 97 93 102
165 164 166 174 158 170 171 167 167 178 162 172 170 172 164 160 159 161 153 142 138 129 134 128 128 118 112 108 105 102 106 109
170 169 170 178 164 170 170 170 177 180 169 177 174 176 172 167 165 164 153 150 145 143 143 136 131 128 123 117 108 106 104 104
176 173 173 177 178 166 167 171 192 182 175 181 180 178 177 174 172 165 163 157 154 152 145 143 137 133 127 121 119 119 115 104
176 173 174 172 171 160 165 170 205 192 176 182 182 179 176 175 173 157 169 167 161 157 152 150 145 142 133 123 119 120 118 118
182 175 172 166 161 165 167 179 199 199 189 179 187 181 174 177 166 159 173 166 166 163 156 155 149 144 139 131 121 132 142 132
185 180 173 171 165 167 176 191 196 200 188 187 194 185 175 178 171 173 177 154 164 169 167 163 157 166 160 150 154 157 163 170
189 183 181 174 170 160 185 193 202 205 203 184 196 190 181 176 180 179 180 175 172 173 172 176 169 179 187 211 170 200 160 174
190 189 182 180 170 172 184 182 202 207 208 196 194 193 187 179 178 178 177 169 174 176 180 184 183 185 189 214 291 99 206 170
191 189 181 177 175 180 178 180 211 206 207 210 186 189 189 174 180 182 181 179 181 178 179 191 197 195 194 196 202 194 208 219
191 188 185 183 178 182 181 189 203 230 207 205 199 187 187 182 182 183 184 183 179 182 185 194 206 206 195 196 199 195 192 203
188 191 188 183 183 185 187 200 191 214 232 212 197 187 191 190 181 184 187 187 187 189 185 192 199 205 203 199 211 220 201 215
193 196 192 188 191 191 196 206 205 195 212 217 209 202 196 190 183 185 189 190 193 193 185 194 199 211 207 211 212 216 207 204